Theta_e
344 345 345 346 347 346 345 342 343 343 344 347 348 347 347 348 346 345 341 343 344 347 348 345 345 346 345 346 347 344 340 339 339 337 340 342 343 344 343 341 342 341 340
344 345 345 346 346 347 344 343 343 345 344 346 347 347 348 349 347 345 341 342 343 346 345 345 344 347 347 346 344 344 343 341 339 339 335 337 340 341 343 341 341 341 339
344 345 345 346 347 346 344 343 343 343 345 347 346 346 348 351 349 348 348 347 346 344 345 343 344 346 346 346 345 346 343 341 340 336 331 331 331 336 341 341 342 341 339
348 348 346 346 345 346 346 346 346 344 345 346 346 348 348 351 350 349 349 348 345 344 345 347 345 347 348 346 346 347 347 345 342 339 330 330 332 333 340 341 341 339 338
348 348 348 350 349 347 346 347 347 348 349 349 348 347 349 351 351 352 350 349 348 345 344 346 347 347 349 349 348 350 350 348 345 343 336 330 331 332 338 340 340 339 339
351 350 350 349 351 351 351 352 349 350 353 352 353 348 349 349 350 351 352 352 352 352 350 348 347 346 345 346 348 348 348 349 347 344 343 335 332 329 332 336 338 338 338
342 343 343 341 340 343 342 345 351 352 352 352 352 352 351 353 353 354 354 353 354 353 353 351 348 345 347 349 348 348 348 348 348 346 344 342 339 333 330 333 334 334 334
347 347 347 349 347 346 345 340 334 340 342 348 349 351 354 354 352 352 351 351 350 348 351 351 349 348 347 347 347 348 348 348 348 348 346 346 344 339 331 327 326 331 334
340 339 344 347 342 338 334 333 331 336 339 346 347 347 347 351 351 342 346 346 347 338 345 348 339 340 339 342 349 348 348 348 347 345 346 346 345 338 332 330 329 331 332
338 335 339 346 343 343 336 332 331 334 339 340 337 338 346 348 342 335 337 343 337 338 335 336 336 337 334 336 336 338 345 347 347 347 347 346 346 344 336 329 329 328 328
337 335 337 344 346 345 343 342 343 341 339 334 339 341 343 342 336 335 337 337 347 346 346 344 331 332 333 333 340 347 348 347 347 346 345 345 346 346 344 336 325 328 331
336 336 334 339 342 344 339 335 337 337 336 337 339 343 344 342 345 343 340 336 336 338 332 331 344 342 336 342 348 347 347 349 350 347 339 342 344 346 345 339 324 322 329
338 338 337 338 343 341 341 342 343 344 345 343 342 338 333 330 329 334 336 336 332 332 331 331 338 339 344 347 353 353 352 352 355 353 348 345 344 345 344 342 328 326 324
330 332 335 336 337 336 342 344 343 342 346 345 344 339 336 334 332 338 339 339 338 335 333 332 331 334 344 344 344 347 349 351 351 351 349 347 346 345 344 343 338 327 329
322 324 327 330 333 333 335 339 340 335 340 344 343 342 342 338 329 339 340 340 340 339 337 336 334 332 328 336 344 345 348 348 350 348 346 344 344 344 344 343 336 332 336
322 323 323 323 327 329 327 329 334 336 335 335 334 336 337 337 332 334 331 330 327 326 331 338 338 333 333 326 330 343 345 348 346 344 342 342 343 343 341 339 337 337 333
316 316 317 320 322 323 324 324 333 334 334 334 334 338 338 334 331 326 327 327 329 330 330 332 335 334 333 329 330 330 344 344 344 343 343 341 342 340 338 340 338 334 330
319 318 317 317 316 318 322 322 324 327 329 332 333 333 329 327 326 325 324 322 322 322 323 325 327 333 334 331 330 322 329 341 341 342 342 341 341 339 337 337 336 332 329
318 320 320 318 318 317 320 320 321 324 327 329 328 324 324 324 322 321 321 323 327 330 329 330 328 331 335 331 324 322 324 335 335 338 338 340 340 339 337 335 335 331 330
318 319 318 318 318 318 319 319 320 322 323 325 324 323 322 321 321 321 321 320 321 325 332 331 332 335 334 334 327 329 325 326 332 334 336 337 337 337 335 337 335 331 330
320 318 320 321 321 322 321 322 321 321 321 321 321 322 322 324 322 322 323 323 323 323 329 331 331 332 334 333 333 331 329 326 329 328 334 334 336 336 334 333 333 332 331
323 321 321 321 321 322 323 324 322 323 321 323 322 324 323 322 322 321 322 323 324 326 325 326 326 327 329 331 332 333 332 331 329 327 331 334 335 335 334 332 330 330 330
322 322 324 321 321 321 322 322 323 323 323 323 323 323 323 322 322 323 326 326 325 325 325 325 326 328 326 328 331 332 333 331 328 329 330 333 334 333 333 331 329 328 328
322 322 322 323 323 320 321 321 321 322 322 323 323 323 323 323 322 322 324 325 325 324 324 325 327 327 328 327 329 330 331 329 329 331 333 333 333 332 332 329 328 328 326
321 321 322 322 324 323 320 319 320 321 322 322 322 322 322 322 321 320 320 321 320 320 321 322 323 324 326 326 327 329 328 323 326 330 330 330 331 331 330 329 328 326 325
320 320 321 323 322 323 323 321 320 320 320 321 321 322 322 322 321 321 320 320 322 324 324 325 326 326 327 327 327 327 325 323 329 330 329 329 329 329 328 327 326 324 324
Wind_Speed
41 39 35 34 30 28 29 30 28 24 23 22 21 21 21 25 25 25 24 23 25 22 22 23 21 21 23 24 23 21 20 18 17 16 20 23 23 22 21 20 20 19 19
43 40 35 31 32 32 31 31 33 32 28 25 25 24 21 23 25 26 28 26 25 27 25 24 23 23 20 20 21 24 24 21 20 20 21 22 23 23 24 23 22 20 19
43 43 40 36 35 34 34 34 35 35 34 35 31 28 25 25 26 25 24 24 25 28 26 26 24 22 23 21 21 21 22 22 21 20 20 22 23 25 26 27 26 23 21
29 41 44 41 36 34 33 33 36 36 36 34 35 34 29 27 26 23 24 23 22 25 27 25 25 25 25 24 23 22 23 25 25 24 22 22 23 24 28 30 30 26 23
31 43 45 44 41 41 38 38 35 35 35 35 35 35 32 31 28 26 25 23 21 21 22 25 26 26 26 26 26 27 26 28 29 30 28 27 26 27 32 31 30 27 25
20 24 27 17 30 36 39 42 40 38 34 33 32 35 34 31 27 25 24 24 23 22 22 22 24 27 28 30 31 30 29 30 32 32 34 33 29 27 28 30 31 30 31
26 31 35 34 27 30 22 25 27 36 26 32 29 29 29 28 26 24 24 26 27 27 27 28 29 30 30 33 34 34 35 34 34 33 36 36 32 31 28 31 31 31 30
19 21 21 23 24 24 32 41 47 19 33 24 28 28 28 28 27 26 21 24 27 31 36 32 31 31 30 32 33 39 41 40 40 39 38 37 34 29 28 25 27 29 32
20 22 18 15 20 19 18 8 10 29 36 19 23 27 27 32 28 23 21 25 34 38 37 33 28 27 36 30 33 39 41 43 41 41 40 39 36 33 29 27 31 31 34
28 27 21 21 24 22 11 29 36 35 35 31 34 33 31 30 31 28 31 27 24 25 27 35 42 42 38 31 39 44 46 44 43 41 39 41 38 35 34 34 34 34 33
33 31 23 19 19 19 23 27 31 36 40 35 33 28 29 27 23 17 21 25 25 22 26 29 26 22 40 50 39 41 40 40 39 32 30 33 36 35 39 43 39 35 36
20 20 24 20 20 21 22 26 32 36 34 28 23 20 19 18 17 19 22 23 19 17 18 19 18 24 27 36 35 37 37 34 35 28 26 36 38 39 41 41 40 38 35
21 25 24 20 16 18 21 21 23 27 28 24 24 21 19 16 17 17 16 15 10 10 8 10 16 21 28 34 36 34 29 27 35 37 35 38 37 33 34 36 37 34 35
28 26 26 29 32 24 27 26 26 26 25 24 24 25 22 19 16 16 14 14 14 12 12 13 15 17 21 24 31 29 27 26 28 29 26 22 25 27 31 32 37 39 38
31 33 33 32 32 31 26 32 32 29 25 24 25 25 25 23 20 17 17 15 16 15 16 18 19 21 21 23 22 24 27 23 24 27 26 25 24 29 30 28 30 36 34
34 33 32 34 35 38 37 33 32 40 43 42 36 34 30 27 21 21 18 16 17 18 20 23 22 22 22 19 21 24 27 27 24 22 25 25 24 25 28 28 33 33 31
27 30 33 35 35 35 38 39 33 34 31 34 27 33 28 23 20 17 17 15 17 19 21 21 22 24 23 19 19 23 26 25 26 28 26 28 26 28 28 30 31 31 31
27 28 28 29 31 32 30 29 30 27 29 25 20 23 25 21 17 18 17 18 19 22 24 25 23 24 25 22 22 23 23 28 28 29 29 31 29 30 30 31 32 32 33
28 26 25 29 32 27 26 28 24 22 18 21 17 21 10 11 13 13 12 12 13 14 16 21 25 25 25 24 21 21 21 24 26 27 28 31 33 32 33 32 33 33 33
20 15 20 26 23 19 24 25 25 27 15 17 12 9 6 14 13 11 10 10 13 15 16 20 21 24 25 23 25 24 23 23 24 29 29 33 33 35 35 35 37 35 35
18 14 15 19 18 18 19 21 22 24 26 26 26 22 15 12 9 8 10 12 14 17 15 15 18 21 23 24 26 29 27 26 27 28 31 31 33 35 36 38 38 36 35
20 21 21 18 16 17 17 19 15 14 14 18 25 19 15 15 14 14 15 17 16 17 18 20 22 23 24 27 28 30 29 30 29 29 32 32 35 32 32 33 35 36 36
20 21 21 19 16 17 16 13 11 10 13 11 10 11 13 15 13 11 11 16 21 23 25 27 24 24 27 29 27 29 31 29 29 28 28 29 30 33 32 30 32 34 36
22 26 26 23 17 18 17 15 14 12 12 11 11 14 15 15 15 17 19 21 23 25 25 27 27 27 25 26 27 27 26 26 23 25 27 29 28 30 30 32 31 32 33
27 25 27 28 21 12 13 16 16 17 17 17 18 19 19 21 23 25 27 28 31 33 32 30 28 28 30 29 28 26 22 24 27 26 28 29 30 30 30 29 29 31 33
29 31 28 25 24 23 18 13 17 22 23 24 25 26 26 26 27 29 30 32 28 26 26 25 23 22 23 24 25 24 24 24 22 24 26 28 30 31 30 30 28 28 29
Wind_Direction
231 229 234 235 234 238 238 234 233 230 232 234 231 232 233 223 222 228 230 228 234 240 241 240 239 241 248 244 244 245 246 254 264 263 248 243 248 247 244 239 236 238 243
234 232 234 237 236 238 242 242 241 241 240 240 238 234 235 231 225 225 230 234 237 237 241 244 241 239 244 245 250 250 250 255 264 262 254 242 237 239 244 244 241 240 244
235 234 235 235 236 237 242 247 249 248 249 247 245 240 237 238 229 227 232 239 242 240 241 243 245 241 246 249 256 258 256 258 260 262 254 248 243 240 236 234 236 240 241
260 254 241 238 237 239 243 247 250 252 251 248 244 241 239 236 232 234 237 241 245 242 241 242 242 243 245 249 254 259 266 267 262 259 254 248 243 238 234 231 230 236 239
225 245 251 254 258 253 248 247 249 252 250 248 243 240 241 238 238 237 238 240 244 245 245 246 249 251 252 254 257 258 260 260 259 256 253 248 245 242 231 229 232 237 242
260 249 257 267 261 271 268 257 249 247 243 238 243 232 237 241 242 245 251 251 254 255 256 260 263 263 260 258 256 257 256 255 254 253 253 252 253 247 241 238 236 237 238
260 263 268 276 267 243 348 298 275 238 246 243 236 231 236 241 246 247 249 251 252 255 253 252 251 249 256 265 264 259 255 250 251 253 253 252 253 252 249 241 243 245 252
308 291 286 260 253 249 242 310 309 247 275 270 246 240 233 234 233 239 247 255 260 262 261 253 254 256 261 265 264 265 259 253 246 244 247 252 252 253 255 258 255 255 255
316 312 295 257 260 254 284 229 264 196 262 257 256 248 242 236 229 248 250 246 256 267 256 251 265 266 282 266 272 273 268 259 257 252 251 251 249 243 243 246 245 246 249
292 303 295 285 277 279 262 213 217 240 254 260 258 249 247 252 240 251 230 259 259 262 255 256 260 270 275 262 279 279 278 272 265 260 255 252 248 235 235 236 241 242 248
294 287 292 302 289 276 267 246 242 243 253 255 251 247 237 244 244 232 228 236 262 262 255 262 275 295 258 247 275 277 273 278 273 260 259 252 251 246 240 231 232 237 241
290 281 286 287 283 279 265 252 245 242 240 238 234 231 226 221 228 229 242 249 255 265 266 262 243 235 246 267 270 268 267 265 268 252 242 250 245 241 236 232 231 238 244
294 282 291 260 267 273 267 250 241 237 234 228 227 227 230 233 235 229 222 217 233 267 297 288 267 259 261 264 265 259 259 252 253 255 251 249 250 251 236 231 231 237 243
295 288 286 281 276 275 259 255 246 243 242 239 243 246 244 250 250 238 234 243 252 272 293 287 286 271 261 262 262 257 254 250 249 248 258 259 259 242 235 233 232 230 242
293 289 290 292 294 294 275 263 264 259 254 254 254 257 260 261 257 249 252 255 259 266 272 268 277 284 287 275 268 257 252 250 241 246 246 249 245 238 234 236 233 234 247
292 290 286 283 280 284 295 286 273 273 270 266 274 261 254 257 254 258 254 258 263 262 258 259 267 274 285 287 282 273 256 253 245 241 242 243 240 235 236 233 241 243 242
298 292 288 284 283 285 286 292 291 282 281 275 264 258 257 253 248 239 248 256 257 261 267 264 267 271 274 272 279 270 268 256 251 249 247 243 236 239 243 239 240 242 235
313 303 298 298 292 282 284 292 286 302 294 291 269 258 248 231 232 247 262 270 268 269 273 275 278 274 271 266 273 280 264 258 255 256 258 248 242 245 246 248 243 237 233
324 306 299 300 298 284 271 277 283 272 294 296 289 241 206 231 250 260 271 277 286 281 279 269 262 269 266 267 270 273 269 265 263 264 260 259 248 247 249 251 246 239 234
336 327 311 304 302 284 271 269 270 257 251 240 243 291 296 264 250 257 272 292 290 284 287 271 273 265 258 267 269 273 273 265 261 260 262 257 256 260 248 253 248 235 231
330 327 333 326 320 314 305 293 275 265 264 265 256 237 277 274 277 288 290 297 308 291 286 287 279 274 271 273 272 271 272 271 263 262 261 258 258 257 254 249 247 242 235
330 316 309 306 299 309 325 324 321 259 280 259 230 247 271 293 296 293 294 298 297 290 285 281 276 271 273 273 276 267 273 276 269 262 257 261 261 258 255 249 242 240 232
351 350 340 310 289 285 301 314 337 310 292 286 255 257 270 284 298 306 299 292 293 294 293 288 289 284 270 266 273 272 269 273 274 265 260 262 264 257 253 246 239 236 232
10 6 3 345 308 277 288 300 302 309 309 300 288 286 288 292 305 306 298 296 297 295 293 283 276 280 280 270 269 273 267 270 272 267 259 261 259 258 253 245 239 238 236
25 17 17 19 10 340 298 296 296 286 283 282 283 286 289 292 297 299 296 293 293 292 289 286 279 272 274 278 266 264 264 273 268 263 259 255 258 256 252 247 243 236 236
30 32 31 27 30 33 23 347 319 297 288 285 284 283 280 280 285 288 291 290 290 288 288 285 280 270 262 264 266 258 260 268 267 263 258 254 252 254 253 249 242 238 234